Theta_e
331 329 327 326 326 326 325 325 325 325 324 324 324 324 325 326 331 332 333 335 335 337 341 343 342 345 343 342 343 344 342 342 335 342 344 349 346 347 350 354 353 352 351
327 324 324 323 322 322 321 321 321 320 321 321 320 319 320 321 325 324 322 323 325 326 332 334 338 342 341 342 343 343 342 345 340 337 340 343 343 346 347 349 349 348 352
323 321 319 318 318 318 319 319 319 319 319 319 318 317 317 319 321 321 321 320 321 321 324 326 330 334 338 342 342 339 339 341 342 339 339 345 343 346 346 347 348 350 346
319 318 317 316 316 317 318 318 318 318 317 317 318 317 317 318 320 321 321 321 321 322 322 323 325 328 334 338 340 342 342 340 339 336 335 336 342 343 345 343 344 346 345
316 315 315 316 317 318 318 318 318 318 317 317 316 316 317 319 319 319 319 320 322 321 321 321 323 327 332 337 339 340 340 339 339 336 333 337 339 339 340 343 341 345 345
314 314 315 316 317 318 317 317 317 316 316 314 314 314 314 315 319 319 319 315 316 320 319 321 323 328 332 335 334 335 337 338 338 337 337 335 338 339 342 342 342 339 337
314 315 315 315 316 316 316 314 313 312 312 311 310 311 311 312 315 315 317 311 311 315 316 318 323 326 330 329 330 331 333 333 336 340 337 338 338 340 341 339 341 341 339
313 313 314 315 314 314 312 310 310 310 309 309 309 309 309 310 313 314 315 310 309 310 311 313 317 319 325 323 323 325 328 332 335 337 339 340 342 344 343 342 341 342 344
311 312 313 313 312 312 311 310 309 308 308 307 307 307 307 308 311 312 311 309 309 309 311 312 314 316 317 317 316 318 322 325 329 329 329 330 332 333 338 341 335 335 333
313 313 313 313 311 310 310 310 309 308 307 307 306 305 307 306 308 310 310 308 306 307 309 311 313 314 315 314 312 313 315 321 326 328 330 332 332 334 332 339 340 334 334
313 315 315 314 312 311 310 310 309 308 307 306 305 305 305 306 307 309 309 308 307 307 308 309 312 313 312 311 312 314 316 320 321 324 326 328 330 333 334 335 338 338 336
313 312 312 313 313 312 310 310 309 308 307 307 306 305 305 306 306 307 307 308 310 308 307 309 311 310 309 311 313 315 315 320 322 323 323 323 327 330 334 335 335 338 342
312 311 310 310 311 310 309 309 307 308 306 306 306 305 303 304 305 306 305 306 308 308 309 310 311 309 309 311 312 313 315 315 317 319 320 323 326 331 332 333 337 336 337
310 310 310 308 308 308 308 308 308 308 307 307 306 306 306 304 304 305 304 303 305 306 308 308 310 311 311 309 308 309 309 309 309 308 312 316 322 327 327 331 329 331 329
309 308 307 307 306 305 307 308 309 310 308 308 308 307 306 306 305 303 301 302 303 304 306 307 306 306 306 306 305 305 305 304 303 305 306 309 311 316 322 328 329 329 326
306 305 305 306 303 304 305 306 305 305 303 301 300 303 308 304 301 299 297 297 298 300 304 303 303 304 304 304 303 303 303 302 302 302 302 304 305 307 311 318 325 325 325
306 306 305 304 303 304 304 303 303 304 302 300 298 298 298 301 299 297 296 296 298 300 303 303 302 303 303 305 305 304 302 302 302 301 300 301 301 303 305 310 314 319 320
307 305 306 305 303 303 304 303 301 301 302 303 301 300 298 296 296 296 296 298 305 304 303 303 303 303 304 304 305 305 304 304 302 299 299 299 299 299 301 304 308 310 313
307 307 307 307 306 305 304 304 304 304 303 303 303 302 300 298 298 296 296 304 304 304 304 304 305 304 304 304 305 305 305 304 303 301 299 298 298 297 297 300 303 305 307
311 311 312 309 308 308 305 305 306 307 306 306 304 304 304 302 304 305 304 304 304 305 306 305 306 305 305 305 305 305 305 305 304 302 300 299 297 297 296 297 301 304 307
310 311 313 308 309 308 307 307 308 308 307 307 306 306 300 303 304 304 302 303 305 306 307 306 306 306 306 305 305 305 305 305 304 302 300 298 298 297 296 297 300 303 306
310 311 311 308 309 309 309 309 309 309 308 307 309 308 299 304 304 304 304 304 306 308 308 306 305 306 305 304 305 305 305 304 303 301 299 297 296 296 297 295 298 302 305
312 312 310 308 308 308 309 310 309 309 310 310 310 309 309 309 308 306 305 307 306 306 308 307 305 306 306 305 306 306 304 303 301 299 297 295 294 294 295 295 297 300 303
314 312 308 307 307 308 310 309 310 305 310 311 311 310 309 309 309 310 308 307 307 306 305 306 305 302 302 303 303 303 301 299 298 296 294 293 292 293 294 294 296 300 302
310 309 307 306 306 307 309 310 311 311 310 309 309 309 309 310 309 308 308 307 307 307 305 303 302 301 300 300 299 298 292 286 290 288 291 291 291 292 293 294 295 298 301
310 309 308 306 306 309 310 311 309 307 307 308 308 308 307 305 304 303 302 301 300 299 298 298 298 298 298 297 296 289 284 284 285 282 284 287 289 291 292 293 294 296 298
Wind_Speed
8 8 6 6 7 7 7 7 7 7 8 8 8 8 8 9 8 7 7 8 8 7 6 6 7 5 5 5 6 7 7 7 9 5 3 4 4 5 4 6 7 6 5
8 9 6 7 8 8 7 5 7 7 7 7 7 8 8 8 7 8 8 8 8 9 9 9 8 5 7 7 6 8 8 8 6 10 4 4 7 5 5 8 8 6 7
10 6 7 8 6 4 4 5 6 6 7 8 8 8 8 8 7 8 8 9 9 9 9 9 9 9 8 5 7 8 8 6 6 5 4 3 6 5 5 6 7 8 5
5 4 4 2 1 2 5 5 6 5 6 7 6 7 8 7 6 8 9 10 10 10 10 9 9 9 9 9 7 8 7 6 6 5 7 7 4 3 4 4 5 5 8
6 6 5 3 3 4 6 6 6 6 5 6 8 8 8 6 8 9 9 10 8 9 11 11 9 12 17 13 7 8 8 8 5 5 5 3 3 3 4 4 7 6 5
5 3 2 4 5 5 5 6 6 7 8 7 7 8 7 6 14 17 15 9 10 10 10 10 10 12 11 12 12 10 9 8 9 4 5 6 6 4 3 6 6 6 5
4 3 2 4 5 5 5 7 8 9 7 7 8 8 8 7 16 18 20 9 10 9 10 10 10 9 11 10 12 12 9 9 13 9 8 8 6 6 4 6 8 7 8
2 1 2 3 4 5 7 6 6 5 7 6 7 7 7 8 18 19 21 11 10 11 11 12 10 10 9 13 12 11 10 9 7 6 8 10 9 5 7 4 6 7 6
4 3 3 3 4 4 5 5 4 4 5 5 5 7 8 9 17 19 16 10 11 12 11 11 12 12 18 20 11 11 12 11 6 8 10 14 13 10 6 4 6 6 5
3 3 3 4 4 3 3 3 2 2 4 5 6 6 10 9 14 18 17 9 11 11 12 11 14 13 21 20 10 7 9 12 10 11 9 8 8 11 12 10 7 7 6
2 2 3 2 3 1 3 2 3 4 4 5 6 6 6 8 10 17 18 10 9 9 8 8 9 20 20 19 13 6 8 12 14 9 9 8 8 7 6 8 10 8 7
3 4 4 3 2 2 4 4 4 4 4 4 5 6 5 7 10 12 17 16 16 10 10 9 10 18 16 14 12 16 16 12 5 6 5 6 6 6 6 7 10 10 9
3 3 3 3 3 3 4 5 4 3 3 4 4 5 5 5 6 12 15 18 16 9 9 13 16 13 13 11 17 18 14 8 8 6 6 6 7 7 8 6 7 9 11
3 1 2 3 4 3 3 3 4 4 5 4 4 5 5 5 5 5 7 7 11 10 12 9 11 11 11 11 12 11 9 9 9 8 8 8 8 7 7 4 4 5 5
1 2 3 3 4 4 3 4 4 5 5 3 4 4 4 6 4 4 4 7 7 8 8 7 8 9 10 10 9 9 8 9 10 10 8 9 9 9 7 5 6 5 6
2 1 1 2 2 3 3 5 8 12 14 8 12 9 4 10 10 12 9 10 11 10 4 5 7 8 8 9 9 9 8 10 8 8 8 9 8 9 9 8 6 6 6
3 3 2 2 2 3 2 2 4 7 6 9 9 8 10 13 8 11 11 11 8 5 4 5 6 6 6 7 7 7 7 6 7 7 7 8 9 8 12 8 7 7 5
0 1 2 3 3 3 4 4 3 4 5 6 6 4 8 8 10 11 8 7 5 2 3 5 6 6 7 7 6 6 7 7 6 6 6 7 7 8 9 9 8 7 6
1 1 2 3 3 5 4 3 3 4 4 6 5 6 4 7 7 5 2 2 3 6 6 6 5 6 6 7 7 7 6 6 7 7 6 6 7 8 9 9 9 11 10
1 6 5 3 3 3 2 3 4 4 5 5 5 5 4 3 3 3 3 2 4 4 4 5 5 5 5 6 7 7 7 7 7 7 7 7 6 5 7 8 9 9 9
2 3 5 3 3 3 3 3 4 5 6 6 6 6 8 5 6 6 4 4 5 5 4 4 5 5 5 5 6 6 7 6 7 7 8 8 8 8 6 6 8 9 8
3 4 4 4 3 4 4 4 5 6 6 7 7 7 7 4 4 6 6 5 5 6 4 3 4 4 4 5 6 6 6 7 8 8 8 9 9 9 8 6 7 8 8
3 4 4 4 4 5 5 5 6 6 7 7 8 7 7 6 5 5 5 7 5 6 4 4 3 5 4 5 5 5 7 8 8 8 9 9 10 9 8 9 8 7 7
4 4 5 5 4 5 5 6 6 6 6 6 7 8 7 7 6 6 6 6 6 4 3 3 5 5 5 6 6 7 7 8 7 8 9 10 10 10 9 9 8 10 8
4 5 5 6 5 4 5 5 4 5 5 7 8 7 7 6 7 7 7 6 7 6 5 4 5 8 9 12 11 12 11 10 9 11 8 9 11 12 10 9 9 9 10
5 5 5 4 4 3 3 3 3 5 6 6 6 6 7 7 7 8 8 9 8 7 8 7 9 12 13 10 11 13 9 11 10 10 8 7 8 8 8 10 12 9 10
Wind_Direction
78 64 29 27 36 41 41 33 27 29 25 25 14 9 6 357 355 3 360 354 346 335 333 297 283 249 229 217 226 226 228 220 253 274 240 239 249 232 253 247 248 248 241
73 61 40 38 29 27 27 30 32 30 27 23 15 13 2 1 9 11 353 341 337 332 328 326 312 306 269 237 224 227 228 226 227 261 253 242 227 214 238 252 246 236 246
59 56 41 37 28 16 18 33 33 31 27 24 23 10 1 0 9 356 337 331 324 315 311 311 310 310 300 275 235 226 226 225 230 242 271 245 235 229 222 241 241 242 242
105 104 82 70 71 26 30 29 32 26 27 25 12 6 1 352 358 346 335 326 317 317 309 300 296 293 290 294 290 260 235 211 209 215 233 247 242 205 221 231 245 230 248
64 52 34 350 32 38 28 19 16 15 10 14 13 8 358 352 4 353 343 329 320 322 320 308 302 298 301 288 279 278 265 245 205 217 244 258 255 219 224 232 240 252 248
75 68 8 17 23 34 29 20 12 8 12 8 8 2 360 354 353 348 344 334 324 328 330 325 313 307 310 318 313 295 277 258 244 207 218 230 244 234 231 239 238 242 261
79 45 11 30 33 30 38 25 19 21 15 11 10 5 358 347 359 354 349 340 329 333 332 335 334 341 343 346 331 315 303 276 248 255 241 231 237 216 210 236 234 235 240
112 50 30 71 54 45 45 30 24 15 12 8 3 358 353 1 3 360 354 342 340 339 338 335 331 331 353 352 341 335 329 315 296 273 249 259 241 233 208 229 233 242 250
164 119 94 83 59 44 37 17 16 11 8 2 356 358 358 354 1 5 359 350 349 346 341 339 338 339 337 339 333 329 320 309 310 295 276 269 261 245 220 206 232 225 245
125 147 124 88 76 43 6 1 15 14 358 359 1 5 6 355 357 3 6 359 354 350 349 344 341 332 329 329 322 310 302 299 316 320 313 302 275 267 244 222 227 221 227
87 113 90 79 74 13 350 352 350 354 351 358 356 345 348 352 346 0 7 6 357 342 339 338 335 336 331 326 322 295 286 298 299 298 295 295 291 283 257 234 226 219 218
80 65 43 31 13 353 338 326 336 339 336 336 339 339 338 341 348 354 1 5 360 356 354 337 335 335 333 339 352 344 342 332 297 286 286 285 287 281 274 248 237 230 233
91 58 21 352 337 342 334 326 325 319 309 309 317 312 312 330 336 348 354 355 356 356 346 339 339 341 344 355 357 358 354 350 340 341 325 307 305 294 289 274 251 245 245
98 22 322 318 316 316 296 287 289 297 303 298 299 298 301 312 322 343 349 346 346 351 346 344 351 355 3 5 4 7 5 1 354 343 335 331 316 305 295 269 260 242 242
66 359 346 341 329 316 284 262 275 266 227 279 283 268 281 294 285 297 312 335 337 332 335 1 4 6 4 6 4 5 3 7 -0 352 343 343 336 334 323 310 285 261 240
52 42 312 324 329 320 329 323 239 254 289 264 260 245 274 239 278 292 300 314 331 336 343 355 350 354 356 354 359 354 357 357 359 347 358 349 340 337 329 321 306 285 267
193 206 255 288 293 288 295 290 308 320 282 284 293 292 239 260 270 279 291 315 310 329 344 334 327 327 325 329 334 338 337 335 336 337 351 340 344 341 333 325 330 312 280
100 246 261 282 275 274 261 261 273 280 297 308 306 276 290 275 264 266 292 316 314 304 322 316 313 311 308 305 308 314 320 327 331 333 333 330 344 342 332 330 327 326 319
71 303 283 281 279 272 277 288 289 295 284 282 302 298 287 291 293 274 215 250 296 302 313 313 310 309 310 309 302 300 302 311 320 327 325 327 329 331 333 330 324 319 311
305 286 285 298 307 313 301 288 303 304 287 285 286 271 297 310 283 281 275 265 273 276 292 296 305 309 310 316 316 312 310 313 320 324 325 323 312 313 314 325 318 318 312
268 275 283 288 283 259 266 275 276 275 275 290 284 278 251 261 277 273 275 251 258 267 273 276 297 302 312 316 320 324 319 313 316 322 322 320 319 317 305 299 306 313 318
251 275 275 271 281 273 276 280 283 290 281 281 288 283 259 251 268 269 266 263 255 247 252 254 272 284 294 307 316 317 310 308 316 319 317 316 314 312 312 304 311 316 321
251 269 273 277 269 279 286 285 283 286 286 291 294 296 300 290 276 279 276 284 264 263 276 262 265 291 299 307 311 307 308 308 312 314 308 310 308 308 306 305 309 307 310
266 266 272 280 288 289 287 294 302 285 294 311 318 317 315 309 309 312 303 320 302 273 235 264 292 297 303 316 322 319 320 322 315 307 306 298 295 297 298 295 293 294 295
269 270 270 275 282 297 300 304 299 318 341 351 344 339 334 335 339 343 350 348 345 352 348 352 337 342 338 332 334 337 336 329 324 316 303 292 288 292 287 289 291 293 295
264 264 272 292 290 284 294 313 336 353 357 352 350 355 3 9 15 19 18 21 13 6 354 347 344 346 341 336 336 332 331 337 339 334 321 301 298 299 298 297 298 298 300